Weather History for Colby, KS

Change the Weather History Date:

Wednesday, April 30, 2014

  Actual Average (KGLD) Record (KGLD)
Temperature  
Mean Temperature 44 °F 54 °F  
Max Temperature 55 °F 68 °F 96 °F (1992)
Min Temperature 32 °F 40 °F 14 °F (1907)
Degree Days  
Heating Degree Days 22 11  
Month to date heating degree days 479  
Since 1 July heating degree days 5655  
Cooling Degree Days 0 0  
Month to date cooling degree days 4  
Year to date cooling degree days 4  
Moisture  
Dew Point 29 °F    
Average Humidity 62    
Maximum Humidity 100    
Minimum Humidity 33    
Precipitation  
Precipitation 0.00 in 0.06 in 0.81 in (1978)
Month to date precipitation 1.59  
Year to date precipitation 3.53  
Snow  
Snow 0.00 in 0.00 in - ()
Month to date snowfall 4.2  
Since 1 July snowfall 35.0  
Snow Depth -    
Sea Level Pressure  
Sea Level Pressure 30.16 in    
Wind  
Wind Speed 20 mph (NNW)    
Max Wind Speed 32 mph    
Max Gust Speed 41 mph    
Visibility 10 miles    
Events      
T = Trace of Precipitation, MM = Missing Value Source: NWS Daily Summary

Daily Weather History Graph

Daily Weather History Graph

Search for Another Location

Airport:

Trip Planner

Search our weather history database for the weather conditions in past years. The results will help you decide how hot, cold, wet, or windy it might be!

Date:

Astronomy

Apr. 30, 2014 Rise Set
Actual Time 6:46 AM CDT 8:36 PM CDT
Civil Twilight 6:17 AM CDT 9:05 PM CDT
Nautical Twilight 5:42 AM CDT 9:41 PM CDT
Astronomical Twilight 5:04 AM CDT 10:19 PM CDT
Moon 7:49 AM CDT (4/30) 10:17 PM CDT (4/30)
Length of Visible Light 14h 48m
Length of Day
13h 50m
New Moon, 2% of the Moon is Illuminated
Apr 30
New Moon
May 6
First Quarter
May 14
Full
May 21
Last Quarter
May 28
New

Hourly Weather History & Observations

Time (CDT) Temp. Windchill Dew Point Humidity Pressure Visibility Wind Dir Wind Speed Gust Speed Precip Events Conditions
12:10 AM 37.4 °F 26.6 °F 33.8 °F 87% 30.15 in 10.0 mi NNW 21.9 mph 28.8 mph N/A   Overcast
12:30 AM 37.4 °F 25.9 °F 33.8 °F 87% 30.15 in 10.0 mi NNW 25.3 mph 32.2 mph N/A   Overcast
12:50 AM 37.4 °F 27.5 °F 32.0 °F 81% 30.16 in 10.0 mi NNW 18.4 mph 26.5 mph N/A   Overcast
1:10 AM 37.4 °F 27.8 °F 32.0 °F 81% 30.16 in 10.0 mi NW 17.3 mph - N/A   Overcast
1:30 AM 35.6 °F 24.5 °F 32.0 °F 87% 30.17 in 10.0 mi NNW 20.7 mph 27.6 mph N/A   Overcast
1:50 AM 35.6 °F 25.2 °F 32.0 °F 87% 30.17 in 10.0 mi NW 18.4 mph - N/A   Overcast
2:10 AM 35.6 °F 25.5 °F 32.0 °F 87% 30.17 in 10.0 mi NW 17.3 mph 21.9 mph N/A   Overcast
2:50 AM 33.8 °F 23.5 °F 30.2 °F 87% 30.17 in 10.0 mi NW 16.1 mph 21.9 mph N/A   Clear
3:10 AM 33.8 °F 25.3 °F 30.2 °F 87% 30.17 in 10.0 mi NW 11.5 mph - N/A   Clear
3:30 AM 32.0 °F 22.5 °F 32.0 °F 100% 30.17 in 10.0 mi NW 12.7 mph - N/A   Clear
3:50 AM 33.8 °F 23.9 °F 32.0 °F 93% 30.17 in 10.0 mi NW 15.0 mph - N/A   Clear
4:10 AM 33.8 °F 23.5 °F 32.0 °F 93% 30.18 in 10.0 mi NW 16.1 mph - N/A   Clear
4:30 AM 32.0 °F 22.1 °F 32.0 °F 100% 30.17 in 10.0 mi NW 13.8 mph - N/A   Clear
4:50 AM 32.0 °F 22.1 °F 32.0 °F 100% 30.18 in 10.0 mi WNW 13.8 mph - N/A   Clear
5:10 AM 32.0 °F 22.5 °F 32.0 °F 100% 30.17 in 10.0 mi NW 12.7 mph - N/A   Clear
5:30 AM 32.0 °F 21.6 °F 32.0 °F 100% 30.17 in 10.0 mi NW 15.0 mph - N/A   Clear
5:50 AM 32.0 °F 21.6 °F 32.0 °F 100% 30.17 in 10.0 mi NW 15.0 mph - N/A   Scattered Clouds
6:10 AM 33.8 °F 23.2 °F 32.0 °F 93% 30.17 in 10.0 mi NW 17.3 mph - N/A   Mostly Cloudy
6:30 AM 33.8 °F 22.8 °F 32.0 °F 93% 30.17 in 10.0 mi NW 18.4 mph - N/A   Overcast
6:50 AM 35.6 °F 25.2 °F 32.0 °F 87% 30.17 in 10.0 mi NW 18.4 mph 26.5 mph N/A   Overcast
7:10 AM 35.6 °F 25.5 °F 32.0 °F 87% 30.17 in 10.0 mi NW 17.3 mph - N/A   Overcast
7:30 AM 35.6 °F 24.8 °F 32.0 °F 87% 30.18 in 10.0 mi NW 19.6 mph 25.3 mph N/A   Overcast
7:50 AM 35.6 °F 25.2 °F 32.0 °F 87% 30.18 in 10.0 mi NW 18.4 mph 25.3 mph N/A   Overcast
8:10 AM 37.4 °F 28.2 °F 32.0 °F 81% 30.19 in 10.0 mi NW 16.1 mph 23.0 mph N/A   Overcast
8:30 AM 39.2 °F 29.0 °F 32.0 °F 75% 30.18 in 10.0 mi NW 21.9 mph 28.8 mph N/A   Mostly Cloudy
8:50 AM 41.0 °F 29.8 °F 32.0 °F 70% 30.18 in 10.0 mi NW 29.9 mph 34.5 mph N/A   Scattered Clouds
9:10 AM 41.0 °F 29.8 °F 30.2 °F 65% 30.18 in 10.0 mi NNW 29.9 mph 35.7 mph N/A   Mostly Cloudy
9:30 AM 42.8 °F 32.3 °F 32.0 °F 66% 30.18 in 10.0 mi NNW 29.9 mph 40.3 mph N/A   Scattered Clouds
9:55 AM 42.8 °F 32.7 °F 30.2 °F 61% 30.18 in 10.0 mi NNW 27.6 mph 34.5 mph N/A   Scattered Clouds
10:10 AM 44.6 °F 35.1 °F 28.4 °F 53% 30.18 in 10.0 mi NNW 27.6 mph 38.0 mph N/A   Scattered Clouds
10:30 AM 44.6 °F 34.9 °F 28.4 °F 53% 30.18 in 10.0 mi NNW 28.8 mph 39.1 mph N/A   Mostly Cloudy
10:50 AM 44.6 °F 34.6 °F 26.6 °F 49% 30.18 in 10.0 mi NNW 31.1 mph 38.0 mph N/A   Mostly Cloudy
11:10 AM 44.6 °F 35.1 °F 26.6 °F 49% 30.18 in 10.0 mi NNW 27.6 mph 39.1 mph N/A   Mostly Cloudy
11:30 AM 44.6 °F 35.3 °F 26.6 °F 49% 30.18 in 10.0 mi NNW 26.5 mph 34.5 mph N/A   Overcast
11:50 AM 46.4 °F 37.7 °F 26.6 °F 46% 30.18 in 10.0 mi NNW 26.5 mph 34.5 mph N/A   Overcast
12:10 PM 46.4 °F 37.5 °F 26.6 °F 46% 30.18 in 10.0 mi NNW 27.6 mph 35.7 mph N/A   Overcast
12:30 PM 46.4 °F 37.5 °F 26.6 °F 46% 30.18 in 10.0 mi NW 27.6 mph 38.0 mph N/A   Overcast
12:50 PM 48.2 °F - 26.6 °F 43% 30.17 in 10.0 mi NNW 25.3 mph 38.0 mph N/A   Overcast
1:10 PM 46.4 °F 38.3 °F 26.6 °F 46% 30.16 in 10.0 mi NW 23.0 mph 36.8 mph N/A   Overcast
1:30 PM 48.2 °F - 26.6 °F 43% 30.15 in 10.0 mi NW 27.6 mph 35.7 mph N/A   Mostly Cloudy
1:50 PM 50.0 °F - 26.6 °F 40% 30.16 in 10.0 mi NNW 24.2 mph 40.3 mph N/A   Mostly Cloudy
2:10 PM 50.0 °F - 26.6 °F 40% 30.15 in 10.0 mi NNW 26.5 mph 35.7 mph N/A   Mostly Cloudy
2:30 PM 51.8 °F - 26.6 °F 38% 30.14 in 10.0 mi NNW 28.8 mph 39.1 mph N/A   Mostly Cloudy
2:50 PM 51.8 °F - 26.6 °F 38% 30.14 in 10.0 mi NNW 21.9 mph 32.2 mph N/A   Scattered Clouds
3:10 PM 53.6 °F - 26.6 °F 35% 30.13 in 10.0 mi NW 25.3 mph 39.1 mph N/A   Scattered Clouds
3:30 PM 55.4 °F - 26.6 °F 33% 30.12 in 10.0 mi NNW 25.3 mph 34.5 mph N/A   Scattered Clouds
3:50 PM 53.6 °F - 26.6 °F 35% 30.12 in 10.0 mi NNW 26.5 mph 38.0 mph N/A   Scattered Clouds
4:10 PM 53.6 °F - 24.8 °F 33% 30.11 in 10.0 mi NNW 23.0 mph 41.4 mph N/A   Scattered Clouds
4:30 PM 53.6 °F - 26.6 °F 35% 30.11 in 10.0 mi NNW 20.7 mph 35.7 mph N/A   Scattered Clouds
4:50 PM 53.6 °F - 26.6 °F 35% 30.10 in 10.0 mi NNW 24.2 mph 34.5 mph N/A   Scattered Clouds
5:10 PM 55.4 °F - 26.6 °F 33% 30.10 in 10.0 mi NW 26.5 mph 38.0 mph N/A   Mostly Cloudy
5:30 PM 53.6 °F - 26.6 °F 35% 30.10 in 10.0 mi NNW 27.6 mph 41.4 mph N/A   Mostly Cloudy
5:50 PM 53.6 °F - 26.6 °F 35% 30.10 in 10.0 mi NNW 32.2 mph 38.0 mph N/A   Mostly Cloudy
6:10 PM 53.6 °F - 24.8 °F 33% 30.09 in 10.0 mi North 26.5 mph 35.7 mph N/A   Scattered Clouds
6:30 PM 53.6 °F - 26.6 °F 35% 30.10 in 10.0 mi NNW 19.6 mph 32.2 mph N/A   Scattered Clouds
6:50 PM 53.6 °F - 26.6 °F 35% 30.10 in 10.0 mi North 20.7 mph 33.4 mph N/A   Mostly Cloudy
7:10 PM 51.8 °F - 26.6 °F 38% 30.10 in 10.0 mi North 20.7 mph 32.2 mph N/A   Scattered Clouds
7:30 PM 51.8 °F - 26.6 °F 38% 30.10 in 10.0 mi North 25.3 mph 32.2 mph N/A   Clear
7:50 PM 51.8 °F - 26.6 °F 38% 30.10 in 10.0 mi North 24.2 mph 28.8 mph N/A   Clear
8:10 PM 48.2 °F - 26.6 °F 43% 30.12 in 10.0 mi North 18.4 mph 24.2 mph N/A   Clear
8:30 PM 46.4 °F 39.0 °F 26.6 °F 46% 30.12 in 10.0 mi North 19.6 mph - N/A   Clear
8:50 PM 44.6 °F 37.8 °F 26.6 °F 49% 30.14 in 10.0 mi North 15.0 mph - N/A   Clear
9:10 PM 42.8 °F 35.8 °F 26.6 °F 53% 30.15 in 10.0 mi North 13.8 mph - N/A   Clear
9:30 PM 42.8 °F 36.2 °F 26.6 °F 53% 30.17 in 10.0 mi North 12.7 mph - N/A   Scattered Clouds
9:50 PM 42.8 °F 36.6 °F 26.6 °F 53% 30.17 in 10.0 mi North 11.5 mph - N/A   Scattered Clouds
10:15 PM 39.2 °F 33.6 °F 28.4 °F 65% 30.18 in 10.0 mi NW 8.1 mph - N/A   Scattered Clouds
10:30 PM 37.4 °F 32.8 °F 28.4 °F 70% 30.18 in 10.0 mi NW 5.8 mph - N/A   Mostly Cloudy
10:50 PM 39.2 °F 35.0 °F 30.2 °F 70% 30.19 in 10.0 mi WNW 5.8 mph - N/A   Overcast
11:10 PM 37.4 °F 32.1 °F 30.2 °F 75% 30.18 in 10.0 mi West 6.9 mph - N/A   Overcast
11:30 PM 41.0 °F 35.8 °F 30.2 °F 65% 30.18 in 10.0 mi WNW 8.1 mph - N/A   Overcast
11:50 PM 39.2 °F 33.6 °F 30.2 °F 70% 30.18 in 10.0 mi WNW 8.1 mph - N/A   Overcast